www.pogodaiklimat.ru

Погода и климат >> Архив погоды >> Австралия >> Новый Южный Уэльс >> Тамворт


ПОГОДА в Тамворте

  • Прогноз погоды в Тамворте
  • Монитор погоды в Тамворте

АРХИВ ПОГОДЫ в Тамворте

Время (UTC), дата Ветер
(напр.,м/с)
 
Видим.   Явления Облачность Т
(С)
Тd
(С)
f
(%)
Тe
(С)
Тes
(С)
Комфортность P
(гПа)
Po
(гПа)
Тmin
(С)
Tmax
(С)
R
(мм)
R24
(мм)
S
(см)
04 9.01 З 3 н/о н/о +33.9 +11.1 25 +33 +33 жарко 1009.4 965.1
05 9.01 Ю 2 н/о н/о +34.2 +10.1 23 +33 +33 жарко 1009.0 964.7
06 9.01 С 2 н/о н/о +33.8 +9.8 23 +33 +33 жарко 1008.4 964.2
08 9.01 С 3 н/о н/о +33.7 +8.3 21 +32 +32 жарко 1008.6 964.4
07 9.01 С 1 н/о 1/0
[]
+34.1 +9.4 22 +33 +37 жарко 1008.5 964.3
09 9.01 штиль 0 н/о н/о +31.9 +8.2 23 +31 +31 жарко 1009.3 965.0
10 9.01 штиль 0 н/о н/о +30.0 +9.0 27 +29 +29 жарко 1009.8 965.5
11 9.01 СВ 7 н/о н/о +30.6 +13.0 34 +32 +32 жарко 1010.4 966.1
12 9.01 В 5 н/о н/о +29.8 +13.5 37 +31 +31 жарко 1011.3 966.9
14 9.01 Ю 4 н/о н/о +24.0 +18.0 69 +28 +28 душно 1011.9 967.5
13 9.01 ЮЗ 5 н/о 10/0 2000 м
[]
+24.4 +15.9 59 +28 +28 душно 1012.0 967.6 +35.7
15 9.01 ЮВ 6 н/о н/о +24.9 +16.1 58 +28 +28 жарко 1011.9 967.5
16 9.01 ЮВ 4 н/о {туман} н/о +23.3 +15.1 60 +27 +27 душно 1011.9 967.5
17 9.01 В 2 н/о н/о +23.2 +16.3 65 +28 +28 душно 1012.3 967.9
18 9.01 ЮЗ 2 н/о н/о +21.5 +16.5 73 +25 +25 комфорт 1012.7 968.3
20 9.01 штиль 0 н/о н/о +23.2 +17.2 69 +28 +28 душно 1013.6 969.1
19 9.01 Ю 3 н/о н/о +20.8 +16.2 75 +25 +25 комфорт 1013.1 968.7
21 9.01 СЗ 2 н/о н/о +26.0 +15.1 51 +29 +29 душно 1014.1 969.6
22 9.01 СЗ 2 н/о н/о +28.1 +15.1 45 +31 +31 душно 1014.4 969.9
23 9.01 ЮВ 2 н/о н/о +30.2 +13.9 37 +32 +32 жарко 1014.2 969.7
00 10.01 Ю 4 н/о н/о +31.6 +14.3 35 +33 +33 жарко 1014.1 969.6
02 10.01 СЗ 4 н/о н/о +34.0 +11.8 26 +34 +34 очень
жарко
1012.6 968.2
01 10.01 ЮВ 4 н/о н/о +33.3 +12.3 28 +34 +34 очень
жарко
1013.5 969.0 +20.7
03 10.01 ЮЗ 3 н/о н/о +35.0 +10.8 23 +34 +34 очень
жарко
1011.6 967.2
04 10.01 Ю 5 н/о 1/0
[]
+36.3 +9.0 19 +35 +43 очень
жарко
1010.4 966.1
05 10.01 ЮВ 7 н/о н/о +36.3 +11.9 23 +36 +36 очень
жарко
1010.0 965.7
06 10.01 В 10 н/о н/о +32.0 +12.8 31 +33 +33 жарко 1010.2 965.9
08 10.01 ЮВ 7 н/о н/о +30.6 +15.5 40 +33 +33 душно 1011.9 967.5
07 10.01 В 7 н/о 10/0
[]
+30.0 +12.4 34 +31 +31 жарко 1010.8 966.5
09 10.01 В 8 н/о н/о +27.3 +13.6 43 +29 +29 жарко 1013.6 969.1
10 10.01 ЮВ 5 н/о 4/0
[]
+25.9 +13.7 47 +28 +28 жарко 1013.9 969.4
11 10.01 В 4 н/о н/о +26.6 +14.7 48 +29 +29 жарко 1014.6 970.1
12 10.01 Ю 4 н/о н/о +26.0 +15.7 53 +29 +29 душно 1014.7 970.2
14 10.01 В 5 н/о н/о +25.4 +15.4 54 +28 +28 жарко 1015.2 970.7
13 10.01 В 6 н/о 10/0
[]
+26.7 +16.0 52 +30 +30 душно 1015.0 970.5 +38.0
15 10.01 В 6 н/о н/о +25.0 +14.5 52 +28 +28 жарко 1014.9 970.4
16 10.01 ЮВ 6 н/о н/о +23.9 +15.1 58 +27 +27 жарко 1014.5 970.0
17 10.01 ЮВ 5 н/о н/о +22.8 +14.9 61 +27 +27 душно 1014.7 970.2
18 10.01 В 5 н/о н/о +23.5 +15.3 60 +26 +26 жарко 1014.9 970.4
20 10.01 В 4 н/о н/о +24.1 +15.3 58 +27 +27 жарко 1016.6 972.0
19 10.01 ЮВ 4 н/о н/о +22.5 +15.1 63 +26 +26 жарко 1015.8 971.2
21 10.01 В 4 н/о н/о +26.0 +14.8 50 +29 +29 душно 1017.1 972.5
22 10.01 СВ 3 н/о н/о +27.3 +14.0 44 +29 +29 жарко 1017.2 972.6
23 10.01 СЗ 3 н/о н/о +28.6 +14.4 42 +31 +31 жарко 1016.8 972.2
00 11.01 З 3 н/о н/о +30.8 +14.4 37 +33 +33 душно 1016.6 972.0
02 11.01 СВ 3 н/о н/о +33.4 +13.5 30 +34 +34 очень
жарко
1015.3 970.8
01 11.01 СВ 2 н/о н/о +32.3 +13.0 31 +33 +33 жарко 1016.3 971.7 +22.5
03 11.01 Ю 2 н/о н/о +35.4 +12.4 25 +35 +35 очень
жарко
1014.2 969.7
04 11.01 З 3 н/о н/о +34.8 +11.2 24 +34 +34 очень
жарко
1012.9 968.5
05 11.01 С 3 н/о н/о +35.7 +11.4 23 +35 +35 очень
жарко
1011.4 967.0
06 11.01 ЮЗ 1 н/о н/о +36.3 +11.2 22 +36 +36 очень
жарко
1010.8 966.5
08 11.01 СВ 3 н/о н/о +30.6 +13.8 36 +32 +32 жарко 1011.4 967.0
07 11.01 В 3 н/о н/о +35.4 +9.0 20 +34 +34 очень
жарко
1010.5 966.2
09 11.01 Ю 6 н/о н/о +26.2 +15.0 50 +29 +29 жарко 1012.5 968.1
10 11.01 ЮЗ 9 н/о в посл. час дождь {туман} 10/0
[]
+22.7 +18.9 79 +29 +29 очень
душно
1014.6 970.1
11 11.01 Ю 7 н/о н/о +22.3 +17.7 75 +27 +27 душно 1015.9 971.3
12 11.01 ЮВ 8 н/о н/о +22.5 +17.8 75 +28 +28 душно 1016.4 971.8
14 11.01 ЮВ 5 н/о н/о +21.6 +18.0 80 +26 +26 душно 1016.6 972.0
13 11.01 ЮВ 8 н/о {туман} 10/10 1500 м
[]
+21.5 +17.7 79 +26 +26 душно 1016.9 972.3 +36.8
15 11.01 ЮВ 5 н/о н/о +21.9 +17.5 76 +26 +26 душно 1016.2 971.6
16 11.01 Ю 6 н/о {туман} 9/0 2000 м
[]
+21.9 +17.3 75 +26 +26 душно 1016.7 972.1
17 11.01 СВ 5 н/о н/о +21.0 +16.8 77 +25 +25 комфорт 1014.8 970.3
18 11.01 Ю 4 н/о н/о +20.8 +17.2 80 +25 +25 комфорт 1015.8 971.2
20 11.01 Ю 3 н/о н/о +21.7 +17.3 76 +26 +26 душно 1016.7 972.1
19 11.01 Ю 4 н/о {туман} н/о +20.3 +17.1 82 +24 +24 комфорт 1016.3 971.7
21 11.01 В 2 н/о н/о +24.4 +16.4 61 +28 +28 душно 1017.1 972.5
22 11.01 ЮЗ 3 н/о {туман} н/о +25.3 +17.0 60 +29 +29 душно 1017.5 972.9
23 11.01 З 3 н/о н/о +26.9 +15.3 49 +30 +30 душно 1017.4 972.8
00 12.01 З 3 н/о н/о +28.8 +13.5 39 +30 +30 жарко 1017.1 972.5
02 12.01 З 3 н/о н/о +31.5 +15.9 39 +34 +34 душно 1015.9 971.3
01 12.01 З 2 н/о {туман} н/о +30.4 +15.7 41 +33 +33 душно 1016.7 972.1 +20.2
03 12.01 З 3 н/о н/о +32.7 +14.3 33 +34 +34 очень
жарко
1014.9 970.4
04 12.01 Ю 4 н/о {туман} н/о +34.1 +13.0 28 +35 +35 очень
жарко
1014.3 969.8
05 12.01 Ю 4 н/о н/о +35.6 +13.1 26 +36 +36 очень
жарко
1013.6 969.1
06 12.01 З 3 н/о н/о +35.0 +12.0 25 +35 +35 очень
жарко
1012.9 968.5
08 12.01 Ю 5 н/о н/о +34.5 +11.0 24 +34 +34 очень
жарко
1012.9 968.5
07 12.01 Ю 4 н/о н/о +35.1 +10.2 22 +34 +34 очень
жарко
1012.6 968.2
09 12.01 Ю 3 н/о н/о +31.4 +12.2 31 +32 +32 жарко 1013.3 968.9
10 12.01 Ю 4 н/о н/о +28.9 +14.7 42 +31 +31 жарко 1014.0 969.5
11 12.01 ЮВ 4 н/о н/о +27.5 +13.8 43 +30 +30 жарко 1014.6 970.1
12 12.01 ЮВ 4 н/о н/о +26.9 +15.3 49 +30 +30 душно 1014.6 970.1
14 12.01 ЮВ 4 н/о н/о +24.9 +16.6 60 +28 +28 жарко 1014.6 970.1
13 12.01 Ю 4 н/о н/о +25.2 +16.6 59 +29 +29 душно 1014.7 970.2 +36.3
15 12.01 ЮВ 4 н/о н/о +24.0 +16.5 63 +27 +27 жарко 1014.5 970.0
16 12.01 ЮВ 4 н/о н/о +23.6 +16.1 63 +27 +27 жарко 1014.2 969.7
17 12.01 Ю 1 н/о н/о +22.2 +16.5 70 +26 +26 душно 1014.1 969.6
18 12.01 ЮВ 3 н/о н/о +20.8 +16.2 75 +25 +25 комфорт 1014.4 969.9
20 12.01 Ю 3 н/о н/о +22.0 +16.9 73 +26 +26 душно 1015.4 970.9
19 12.01 Ю 3 н/о н/о +19.9 +16.2 79 +23 +23 комфорт 1014.8 970.3
21 12.01 ЮВ 4 н/о н/о +26.0 +16.3 55 +29 +29 душно 1015.9 971.3
22 12.01 ЮВ 3 н/о н/о +29.1 +14.5 41 +31 +31 жарко 1016.2 971.6
23 12.01 Ю 3 н/о н/о +30.9 +11.3 30 +31 +31 жарко 1015.9 971.3
00 13.01 ЮВ 4 н/о н/о +33.4 +11.3 26 +33 +33 жарко 1015.7 971.1
02 13.01 В 5 н/о н/о +36.3 +8.2 18 +34 +34 очень
жарко
1014.2 969.7
01 13.01 ЮВ 4 н/о н/о +35.3 +9.7 21 +34 +34 очень
жарко
1015.0 970.5 +19.6
03 13.01 В 4 н/о н/о +37.7 +5.6 14 +35 +35 очень
жарко
1013.1 968.7
04 13.01 СВ 6 н/о н/о +37.8 +5.7 14 +35 +35 очень
жарко
1012.4 968.0
05 13.01 ЮВ 7 н/о н/о +38.9 +6.6 14 +36 +36 очень
жарко
1012.0 967.6
06 13.01 ЮВ 8 н/о н/о +38.0 +8.7 17 +36 +36 очень
жарко
1011.7 967.3
08 13.01 ЮВ 9 н/о н/о +34.9 +11.3 24 +34 +34 очень
жарко
1012.8 968.4
07 13.01 ЮВ 8 н/о н/о +36.8 +10.9 21 +36 +36 очень
жарко
1012.1 967.7
09 13.01 ЮВ 8 н/о н/о +32.7 +11.3 27 +33 +33 жарко 1013.8 969.3
10 13.01 ЮВ 8 н/о н/о +30.5 +12.4 33 +31 +31 жарко 1014.7 970.2
11 13.01 ЮВ 9 н/о н/о +28.5 +13.6 40 +30 +30 жарко 1015.4 970.9
12 13.01 В 10 н/о н/о +27.7 +14.3 44 +30 +30 жарко 1015.3 970.8
14 13.01 ЮЗ 3 н/о н/о +25.0 +15.3 55 +28 +28 жарко 1016.3 971.7
13 13.01 ЮВ 6 н/о н/о +25.9 +14.4 49 +28 +28 жарко 1016.2 971.6 +39.8
15 13.01 В 7 н/о н/о +24.4 +15.1 56 +27 +27 жарко 1015.7 971.1
16 13.01 В 3 н/о 1/0
[]
+23.0 +14.6 59 +27 +27 душно 1015.1 970.6
17 13.01 В 5 н/о н/о +22.6 +13.4 56 +26 +26 жарко 1014.9 970.4
18 13.01 ЮВ 3 н/о н/о +21.5 +12.9 58 +24 +24 комфорт 1015.1 970.6
20 13.01 З 1 н/о н/о +20.0 +12.5 62 +23 +23 комфорт 1016.6 972.0
19 13.01 штиль 0 н/о н/о +19.8 +12.1 61 +21 +21 комфорт 1015.9 971.3
21 13.01 В 1 н/о н/о +24.7 +11.3 43 +26 +26 жарко 1017.2 972.6
22 13.01 СВ 1 н/о н/о +26.5 +9.8 35 +27 +27 жарко 1017.0 972.4
23 13.01 С 1 н/о н/о +28.1 +8.9 30 +28 +28 жарко 1016.9 972.3
00 14.01 З 4 н/о н/о +30.5 +7.7 24 +29 +29 жарко 1016.6 972.0
02 14.01 Ю 2 н/о н/о +31.7 +6.7 21 +30 +30 жарко 1015.2 970.7
01 14.01 З 3 н/о 10/0
[]
+30.2 +7.4 24 +29 +38 жарко 1016.0 971.4 +19.1
03 14.01 В 3 н/о н/о +33.4 +5.0 17 +31 +31 жарко 1014.3 969.8
04 14.01 ЮЗ 4 н/о 1/0
[]
+35.5 +5.8 16 +33 +45 жарко 1013.6 969.1
05 14.01 ЮЗ 5 н/о н/о +36.7 +4.9 14 +34 +34 очень
жарко
1012.6 968.2
06 14.01 ЮВ 3 н/о н/о +36.7 +2.7 12 +33 +33 жарко 1011.9 967.5
08 14.01 ЮЗ 1 н/о н/о +34.0 +5.5 17 +32 +32 жарко 1011.8 967.4
07 14.01 Ю 2 н/о 5/0
[]
+36.0 +2.1 12 +33 +35 жарко 1011.7 967.3
09 14.01 штиль 0 н/о н/о +33.3 +5.0 17 +31 +31 жарко 1012.1 967.7
10 14.01 штиль 0 н/о н/о +30.5 +6.4 22 +29 +29 жарко 1012.4 968.0
11 14.01 ЮВ 4 н/о н/о +28.6 +7.8 27 +28 +28 жарко 1012.9 968.5
12 14.01 В 4 н/о н/о +28.8 +10.0 31 +29 +29 жарко 1013.2 968.8
14 14.01 Ю 4 н/о н/о +25.7 +12.9 45 +28 +28 жарко 1012.8 968.4
13 14.01 ЮВ 1 н/о н/о +27.1 +10.8 36 +28 +28 жарко 1013.0 968.6 +37.9
15 14.01 ЮВ 3 н/о н/о +24.2 +12.8 49 +26 +26 жарко 1012.7 968.3
16 14.01 ЮЗ 2 н/о н/о +22.5 +13.8 58 +26 +26 жарко 1012.5 968.1
17 14.01 ЮВ 3 н/о н/о +22.4 +14.0 59 +26 +26 жарко 1012.5 968.1
18 14.01 Ю 3 н/о н/о +21.7 +14.1 62 +25 +25 комфорт 1012.9 968.5
20 14.01 Ю 2 н/о н/о +23.8 +15.3 59 +27 +27 жарко 1014.4 969.9
19 14.01 Ю 3 н/о н/о +20.4 +14.1 67 +23 +23 комфорт 1013.7 969.2
21 14.01 ЮВ 3 н/о н/о +27.4 +14.1 44 +30 +30 жарко 1015.2 970.7
22 14.01 СВ 2 н/о н/о +28.7 +12.2 36 +30 +30 жарко 1015.3 970.8
23 14.01 СЗ 3 н/о н/о +31.2 +11.1 29 +31 +31 жарко 1015.0 970.5
00 15.01 СЗ 4 н/о н/о +32.5 +9.9 25 +32 +32 жарко 1014.3 969.8
02 15.01 З 2 н/о н/о +35.9 +8.7 19 +34 +34 очень
жарко
1012.6 968.2
01 15.01 СЗ 2 н/о н/о +35.1 +10.2 22 +34 +34 очень
жарко
1013.5 969.0 +20.1
03 15.01 З 2 н/о н/о +37.5 +9.2 18 +36 +36 очень
жарко
1011.7 967.3
04 15.01 СЗ 2 н/о 1/0
[]
+38.7 +8.4 16 +37 +53 опасность
солнечного
удара
1010.7 966.4
05 15.01 Ю 3 н/о н/о +39.1 +7.7 15 +37 +37 очень
жарко
1009.5 965.2
06 15.01 ЮЗ 4 н/о н/о +39.0 +7.7 15 +37 +37 очень
жарко
1008.7 964.5
08 15.01 Ю 2 н/о н/о +38.9 +7.6 15 +37 +37 очень
жарко
1008.5 964.3
07 15.01 Ю 5 н/о н/о +39.6 +8.1 15 +37 +37 очень
жарко
1008.3 964.1
09 15.01 В 6 н/о н/о +35.5 +11.2 23 +35 +35 очень
жарко
1009.1 964.8
10 15.01 ЮЗ 1 н/о н/о +32.2 +10.8 27 +32 +32 жарко 1010.1 965.8
11 15.01 В 3 н/о н/о +32.6 +11.7 28 +33 +33 жарко 1010.2 965.9
12 15.01 СЗ 2 н/о н/о +29.3 +11.4 33 +30 +30 жарко 1010.4 966.1
14 15.01 Ю 1 н/о н/о +28.1 +14.0 42 +30 +30 жарко 1010.4 966.1
13 15.01 З 3 н/о н/о +26.5 +13.3 44 +28 +28 жарко 1010.4 966.1 +40.3
15 15.01 Ю 3 н/о н/о +26.3 +15.0 50 +29 +29 жарко 1010.0 965.7
16 15.01 Ю 3 н/о н/о +26.4 +15.8 52 +30 +30 душно 1009.6 965.3
17 15.01 Ю 4 н/о н/о +25.6 +15.9 55 +29 +29 душно 1009.4 965.1
18 15.01 Ю 3 н/о н/о +24.3 +16.0 60 +28 +28 душно 1009.9 965.6
20 15.01 ЮВ 3 н/о н/о +26.0 +17.1 58 +30 +30 душно 1010.9 966.6
19 15.01 Ю 2 н/о н/о +23.0 +15.8 64 +27 +27 душно 1010.4 966.1
21 15.01 В 1 н/о н/о +28.7 +16.3 47 +32 +32 душно 1011.4 967.0
22 15.01 С 5 н/о н/о +32.2 +14.3 34 +34 +34 душно 1011.2 966.8
23 15.01 С 5 н/о н/о +33.6 +13.6 30 +35 +35 душно 1010.8 966.5
00 16.01 СЗ 4 н/о н/о +35.1 +13.3 27 +36 +36 очень
жарко
1010.7 966.4
02 16.01 С 3 н/о н/о +37.6 +11.5 21 +37 +37 очень
жарко
1009.2 964.9
01 16.01 СЗ 2 н/о н/о +36.6 +12.8 24 +37 +37 очень
жарко
1010.2 965.9 +23.0

 

Местоположение метеостанции Тамворт (Новый Южный Уэльс, Австралия): широта -31.06 долгота 150.83 высота над уровнем моря 396 м.

В архиве по умолчанию представлена погода в Тамворте за последнюю неделю. Архивные данные за месяц целиком и за предыдущие месяцы, начиная с января 2011 года, Вы можете получить, выбрав интересующий диапазон дат из раскрывающегося списка и нажав кнопку "Ввод!".


*Определитесь, кто Вы:
робот инопланетянин человек

Внимание! Время в таблицах - всемирное. Для получения местного времени необходимо прибавить поправку, которая равна 10 ч.

Смотрите также архив погоды в соседних городах и на ближайших метеорологических станциях:

Погода в Ганнеде (Новый Южный Уэльс, Австралия) (57 км)
Погода в Меррерунди (Новый Южный Уэльс, Австралия) (75 км)
Погода в Армидейле (Новый Южный Уэльс, Австралия) (96 км)
Погода в Сконе (Новый Южный Уэльс, Австралия) (108 км)
Погода в Наррабри (Новый Южный Уэльс, Австралия) (127 км)
Погода в Мерриве (Новый Южный Уэльс, Австралия) (139 км)
Погода в Инверелле (Новый Южный Уэльс, Австралия) (144 км)
Погода в Кунабарабране (Новый Южный Уэльс, Австралия) (151 км)
Погода в Глен Иннес (Новый Южный Уэльс, Австралия) (175 км)
Погода в Тари (Новый Южный Уэльс, Австралия) (184 км)

Пояснения к столбцам:

Ветер - указаны скорость ветра в м/с - средняя за 10 мин, порывы в срок и между сроками (в фигурных скобках) и направление, откуда дует ветер: С - северный, СВ - северо-восточный, В - восточный, ЮВ - юго-восточный, Ю - южный, ЮЗ - юго-западный, З - западный, СЗ - северо-западный.
Видимость - горизонтальная дальность видимости в метрах или километрах. При видимости от 1 до 10 км при отсутствии осадков обычно наблюдается дымка, при ухудшении видимости до 1 км и менее - туман. В сухую погоду видимость может ухудшаться дымом, пылью или мглою.
Явления - указаны атмосферные явления, наблюдавшиеся в срок или в последний час перед сроком; фигурными скобками обозначены явления, наблюдавшиеся между сроками (за 1-3 часа до срока); квадратными скобками обозначены град или гололедные отложения с указанием их диаметра в мм.
Облачность - указаны через наклонную черту общая и нижняя облачность в баллах и высота нижней границы облаков в метрах; квадратными скобками обозначены формы облаков: Ci - перистые, Cs - перисто-слоистые, Cc - перисто-кучевые, Ac - высококучевые, As - высокослоистые, Sc - слоисто-кучевые, Ns - слоисто-дождевые, Cu - кучевые, Cb - кучево-дождевые. Подробнее классификацию облаков см. в Атласе облаков (PDF).
T - Температура воздуха - температура, измеренная на высоте 2 м над землей.
Td - Температура точки росы - температура, при понижении до которой содержащийся в воздухе водяной пар достигнет насыщения.
f - Относительная влажность воздуха - влажноcть воздуха, измеренная на высоте 2 м над землей.
Te - Эффективная температура - температура, которую ощущает одетый по сезону человек в тени. Характеристика душности погоды. При расчете учитывается влияние влажности воздуха и скорости ветра на теплоощущения человека.
Tes - Эффективная температура на солнце - температура, которую ощущает человек, с поправкой на солнечный нагрев. Характеристика знойности погоды. Зависит от высоты солнца над горизонтом, облачности и скорости ветра. Ночью, в пасмурную погоду, а также при ветре 12 м/с и более поправка равна нулю.
P - Атмосферное давление - приведенное к уровню моря атмосферное давление.
Po - Атмосферное давление - измеренное на уровне метеостанции атмосферное давление.
Tmin - Минимальная температура - минимум температуры воздуха на высоте 2 м над землей.
Tmax - Максимальная температура - максимум температуры воздуха на высоте 2 м над землей.
R - Количество осадков - Количество выпавших осадков за период времени, мм. При наведении курсора мыши на число - период времени, за который выпало указанное количество осадков.
R24 - Количество осадков - Количество выпавших осадков за 24 часа, мм.
S - Снежный покров - Высота снежного покрова, см. При наведении курсора мыши на число - состояние снежного покрова и степень покрытия местности в баллах.